Regional Weather Roundup
Issued by NWS

Home | Current Version | Previous Version | Text Only | Print | Product List | Glossary Off
Versions: 1 2 3 4 5 6 7 8 9 10 11 12 13 14 15 16 17 18 19 20 21 22 23 24 25 26 27 28 29 30 31 32 33 34 35 36 37 38 39 40 41 42 43 44 45 46 47 48 49 50

000
ASUS43 KIND 071359
RWRIN

WEATHER ROUNDUP FOR INDIANA
NATIONAL WEATHER SERVICE INDIANAPOLIS IN
900 AM EST WED DEC 07 2016

NOTE: "FAIR" INDICATES FEW OR NO CLOUDS BELOW 12,000 FEET WITH NO
SIGNIFICANT WEATHER AND/OR OBSTRUCTIONS TO VISIBILITY.

* - STATION DOES NOT REPORT WEATHER SUCH AS PRECIPITATION OR FOG.

+ - STATION NOT QUALITY CONTROLLED BY THE NATIONAL WEATHER SERVICE.
    USE DATA WITH CAUTION...ESPECIALLY DEWPOINT AND RELATIVE
    HUMIDITY OBSERVATIONS.

INZ001>003-010>013-019-020-071500-
NORTHWEST INDIANA

CITY           SKY/WX    TMP DP  RH WIND       PRES   REMARKS
GARY /AIRPORT/ CLOUDY    28  19  69 W12G23    30.08S WCI  18

$$

LMZ046-743>745-071500-
SOUTHERN LAKE MICHIGAN

STATION/POSITION TIME  TEMP    WIND        PRES    WAVE
                       AIR SEA DIR/SP/G            HT
                 (UTC) (F)     (DEG/KT/KT) (MB)    (FT)
BURNS HARBOR     1330   29     230/ 13/ 18 1018.6S
MICHIGAN CITY    1330   29     200/ 14/ 16   N/A

$$

INZ004-005-014>016-021>024-071500-
NORTH CENTRAL INDIANA

CITY           SKY/WX    TMP DP  RH WIND       PRES   REMARKS
GOSHEN         CLOUDY    28  19  69 W10       30.04F WCI  19
SOUTH BEND     CLOUDY    26  19  74 W9        30.05F WCI  17

$$

INZ006>009-017-018-025>027-071500-
NORTHEAST INDIANA

CITY           SKY/WX    TMP DP  RH WIND       PRES   REMARKS
ANGOLA *+      CLEAR     27  21  80 W8        30.02F WCI  18
FORT WAYNE     CLOUDY    28  20  71 SW8       30.08S WCI  20
KENDALLVILLE + CLOUDY    27  20  75 W7        30.03F WCI  20

$$

INZ028-029-035-036-043>045-051>053-071500-
WEST CENTRAL INDIANA

CITY           SKY/WX    TMP DP  RH WIND       PRES   REMARKS
CRAWFORDSVL +  PTCLDY    27  24  87 SW7       30.14S WCI  19
GREENCASTLE +  CLEAR     28  27  93 SW3       30.16R
LAFAYETTE      PTCLDY    28  20  71 SW7       30.13R WCI  21
TERRE HAUTE    CLEAR     29  22  75 SW3       30.18S

$$

INZ030>032-037>040-046>048-054>057-064-065-071500-
CENTRAL INDIANA

CITY           SKY/WX    TMP DP  RH WIND       PRES   REMARKS
ANDERSON       CLEAR     28  21  74 SW6       30.13  WCI  22
COLUMBUS       SUNNY     27  27 100 SW5       30.18R WCI  21
INDIANAPOLIS   PTCLDY    27  23  85 SW8       30.15R WCI  19
-EAGLE CREEK   CLEAR     28  22  78 SW6       30.14R WCI  22
KOKOMO +       PTCLDY    28  22  78 SW12      30.12R WCI  18
SHELBYVILLE    SUNNY     28  23  81 SW6       30.15R WCI  22

$$

INZ033-034-041-042-049-050-058-059-071500-
EAST CENTRAL INDIANA

CITY           SKY/WX    TMP DP  RH WIND       PRES   REMARKS
MUNCIE         CLEAR     28  22  78 SW7       30.11S WCI  21

$$

INZ060-061-067>069-081>083-085>088-071500-
SOUTHWEST INDIANA

CITY           SKY/WX    TMP DP  RH WIND       PRES   REMARKS
EVANSVILLE     SUNNY     30  25  81 CALM      30.22S
HUNTINGBURG *+ PTSUNNY   29  27  92 CALM      30.22R

$$

INZ062-063-066-070>080-084-089>092-071500-
SOUTH CENTRAL AND SOUTHEAST INDIANA

CITY           SKY/WX    TMP DP  RH WIND       PRES   REMARKS
BLOOMINGTON    PTCLDY    27  22  81 CALM      30.17S
MADISON *+     SUNNY     32  30  93 W3        30.20R
SEYMOUR +      SUNNY     32  27  80 SW3       30.18R

$$





USA.gov is the U.S. government's official web portal to all federal, state and local government web resources and services.